CAPE
nan nan nan nan nan nan nan 1 1 1 1 0 0 0 0 nan 1 1 nan nan nan 1 4 7 7 2 nan nan nan nan nan nan nan nan nan nan nan nan nan nan nan nan nan nan nan nan nan nan nan nan nan nan 1 1 9 16 16 17 19 16 16 10 4 0 0 nan 1 3 nan nan nan nan 0 0 1 2 3 3 2 3 3 4 4 6 6 8
nan nan nan 0 0 nan nan 1 1 1 1 0 0 0 nan 1 nan nan nan nan nan 2 3 5 5 4 0 nan nan nan nan nan nan nan nan nan nan nan nan nan nan nan nan nan nan nan nan nan nan nan nan nan 0 0 6 10 10 15 18 14 14 9 3 0 0 1 3 1 nan nan nan nan nan nan 0 2 3 3 1 2 2 3 3 5 5 9
0 nan nan 0 0 0 nan 1 0 0 nan 0 0 0 0 0 nan nan 0 nan nan 1 1 nan nan 1 2 nan nan nan nan nan nan nan nan nan nan nan nan nan nan nan nan nan nan nan nan nan nan nan nan nan nan nan 0 3 3 7 8 7 7 3 1 nan nan 1 1 nan nan nan nan nan nan nan nan 2 3 3 3 2 2 3 3 5 5 10
nan nan nan nan nan nan nan nan 0 0 0 0 0 0 0 0 nan nan nan 0 0 1 1 1 1 1 2 1 nan nan nan nan nan nan nan nan nan nan nan nan nan nan nan nan nan nan nan nan nan nan nan nan nan nan nan nan nan 1 0 0 0 nan nan nan nan nan nan nan nan nan nan nan nan nan nan 1 2 2 3 3 3 3 3 4 4 6
nan nan nan nan nan nan nan nan nan nan nan nan 0 0 1 nan nan nan 0 0 0 1 1 3 3 2 2 3 nan nan nan nan nan nan nan nan nan nan nan nan nan nan nan nan nan nan nan nan nan nan nan nan nan nan nan nan nan nan nan nan nan nan nan nan nan nan nan nan nan nan nan nan nan nan nan 0 1 1 2 2 2 1 1 4 4 8
nan nan nan nan nan nan nan nan nan nan nan nan nan nan nan nan nan nan 0 1 1 0 nan nan nan 2 4 6 nan nan nan nan nan nan nan nan nan nan nan nan nan nan nan nan nan nan nan nan nan nan nan nan nan nan nan nan nan nan nan nan nan nan nan nan nan nan nan nan nan nan nan nan nan nan nan 0 1 1 0 2 2 4 9 12 12 17
nan nan nan nan nan nan nan nan nan nan nan nan nan nan nan nan nan nan nan 0 0 nan 0 0 0 0 0 nan nan nan nan nan nan nan nan nan nan nan nan nan nan nan nan nan nan nan nan nan nan nan nan nan nan nan nan nan nan nan nan nan nan nan nan nan nan nan nan nan nan nan nan nan nan nan nan 1 4 4 9 15 15 17 17 18 18 21
nan nan nan nan nan nan nan nan nan nan nan nan nan nan nan nan nan nan nan nan nan nan nan nan nan 0 0 0 nan nan nan nan nan nan nan nan nan nan nan nan nan nan nan nan nan nan nan nan nan nan nan nan nan nan nan nan nan nan nan nan nan nan nan nan nan nan nan nan nan nan nan nan 2 2 9 15 22 22 26 24 24 18 12 11 11 11
nan nan nan nan nan nan nan nan nan nan nan nan nan nan nan nan nan nan nan nan nan nan nan nan nan 0 0 nan nan nan nan nan nan nan nan nan nan nan nan nan nan nan nan nan nan nan nan nan nan nan nan nan nan nan nan nan nan nan nan nan nan nan nan nan nan nan nan nan 0 0 1 2 5 5 10 15 20 20 19 13 13 9 7 4 4 6
nan nan nan nan nan nan nan nan nan nan nan nan nan nan nan nan nan nan nan nan nan nan nan nan nan 0 nan nan nan nan nan nan nan nan nan nan nan nan nan nan nan nan nan nan nan nan nan nan nan nan 0 nan nan nan nan nan nan nan nan nan nan nan nan nan nan 0 2 2 1 1 1 2 4 4 8 13 17 17 12 7 7 5 3 3 3 4
nan nan nan nan nan nan nan nan nan nan nan nan nan nan nan nan nan nan nan nan nan nan nan nan nan nan nan nan nan nan nan nan nan nan nan nan nan nan nan nan nan nan nan nan nan nan nan nan nan nan nan nan nan nan nan nan nan nan nan nan nan nan nan 1 1 2 3 3 1 1 0 0 3 3 8 10 12 12 10 6 6 4 3 3 3 4
nan nan nan nan nan nan nan nan nan nan nan nan nan nan nan nan nan nan nan nan nan nan nan nan nan nan nan nan nan nan nan nan nan nan nan nan nan nan nan nan nan nan nan nan nan nan nan nan nan nan nan nan nan nan nan nan nan nan nan nan nan 1 1 3 3 4 3 3 1 1 nan 0 4 4 8 7 8 8 8 7 7 6 4 3 3 3
nan nan nan nan nan nan nan nan nan nan nan nan nan nan nan nan nan nan nan nan nan nan nan nan nan nan nan nan nan nan nan nan nan nan nan nan nan nan nan nan nan nan nan nan nan nan nan nan nan nan nan nan nan nan nan nan nan nan nan 0 0 1 2 3 3 3 4 3 1 1 0 2 6 6 8 6 4 4 3 3 3 3 3 1 1 1
nan nan nan nan nan nan nan nan nan nan nan nan nan nan nan nan nan nan nan nan nan nan nan nan nan nan nan nan nan nan nan nan nan nan nan nan nan nan nan nan nan nan nan nan nan nan nan nan nan nan nan nan nan nan nan nan nan nan nan 0 0 1 2 2 2 3 3 3 1 1 2 5 7 7 8 5 1 1 nan nan nan nan nan nan nan nan
nan nan nan nan nan nan nan nan nan nan nan nan nan nan nan nan nan nan nan nan nan nan nan nan nan nan nan nan nan nan nan nan nan nan nan nan nan nan nan nan nan nan nan nan nan nan nan nan nan nan nan nan nan nan nan 0 0 nan 0 1 1 1 2 2 2 3 4 4 3 3 3 6 8 8 8 7 3 3 nan nan nan nan nan nan nan nan
nan nan nan nan nan nan nan nan nan nan nan nan nan nan nan nan nan nan nan nan nan nan nan nan nan nan nan nan nan nan nan nan nan nan nan nan nan nan nan nan nan nan nan nan nan nan nan nan nan nan nan nan nan nan nan 1 1 0 0 1 1 2 2 3 3 3 4 5 4 4 4 6 9 9 9 8 4 4 nan nan nan nan nan nan nan nan
nan nan nan nan nan nan nan nan nan nan nan nan nan nan nan nan nan nan nan nan nan nan nan nan nan nan nan nan nan nan nan nan nan nan nan nan nan nan nan nan nan nan nan nan nan nan nan nan nan nan nan nan nan nan nan 0 0 1 1 2 2 2 3 4 4 4 5 7 8 8 8 9 10 10 10 8 3 3 nan nan nan nan nan nan nan nan
nan nan nan nan nan nan nan nan nan nan nan nan nan nan nan nan nan nan nan nan nan nan nan nan nan nan nan nan nan nan nan nan nan nan nan nan nan nan nan nan nan nan nan nan nan nan nan nan nan nan nan nan nan nan nan 0 0 0 2 2 2 2 3 4 4 5 7 9 9 9 12 11 11 11 10 6 2 2 0 nan nan nan nan nan nan nan
nan nan nan nan nan nan nan nan nan nan nan nan nan nan nan nan nan nan nan nan nan nan nan nan nan nan nan nan nan nan 0 nan nan nan nan nan nan nan nan nan nan nan nan nan nan nan nan nan nan nan nan nan nan nan nan 0 0 2 3 3 3 3 3 4 4 7 9 11 11 11 13 11 9 9 9 7 3 3 1 nan nan nan nan nan nan nan
nan nan nan nan nan nan nan nan nan nan nan nan nan nan nan nan nan nan nan nan nan nan nan nan nan nan nan nan 0 0 1 nan nan nan nan nan nan nan nan nan nan nan nan nan nan nan nan nan nan nan nan nan nan nan 0 1 1 3 3 3 3 3 4 5 5 8 12 13 14 14 13 11 9 9 7 8 6 6 6 5 5 3 1 nan nan nan
nan nan nan nan nan nan nan nan nan nan nan nan nan nan nan nan nan nan nan nan nan nan nan nan nan nan nan nan nan nan 0 nan nan nan nan nan nan nan 0 nan nan nan nan nan nan nan nan nan nan nan nan 0 1 1 2 3 3 4 5 5 5 5 6 7 7 9 13 14 13 13 13 11 9 9 9 9 8 8 8 8 8 5 2 nan nan nan
nan nan nan nan nan nan nan nan nan nan nan nan nan nan nan nan nan nan nan nan nan nan nan nan nan nan nan nan nan nan 0 nan nan nan nan nan nan nan 0 nan nan nan nan nan nan nan nan nan nan nan 2 2 2 2 2 4 4 6 6 6 6 7 8 9 9 10 14 14 13 13 12 13 12 12 13 10 8 8 8 7 7 5 2 nan nan nan
nan nan nan nan nan nan nan nan nan nan nan nan nan nan nan nan nan nan nan nan nan nan nan nan nan nan nan nan nan nan nan nan nan nan nan nan nan nan 0 nan nan nan nan nan nan nan nan nan nan nan 3 4 4 4 3 5 5 6 6 6 6 7 8 10 10 11 14 14 12 12 13 15 16 16 15 12 9 9 7 7 7 6 3 0 0 nan
nan nan 0 nan nan nan nan nan nan nan 0 nan nan nan nan nan nan nan nan nan nan nan nan nan nan nan nan nan nan nan nan nan nan nan nan nan nan nan nan nan nan nan nan nan nan nan nan nan nan nan 0 3 4 4 4 5 5 7 6 7 7 7 8 9 9 10 13 14 12 12 14 17 19 19 17 13 10 10 10 10 10 9 6 3 3 1
nan 0 0 0 0 0 0 0 nan nan nan nan nan nan nan nan nan nan nan nan nan nan nan nan nan nan nan nan nan nan nan nan nan nan nan 0 nan nan nan nan nan nan 0 nan nan nan nan nan nan nan nan 3 4 4 4 6 6 6 6 7 7 8 9 10 10 11 13 13 12 12 16 20 21 21 19 15 13 13 14 12 12 11 10 8 8 5
nan nan nan 0 0 1 1 1 2 2 nan nan nan nan nan nan nan nan nan nan nan nan nan nan nan nan nan nan nan nan nan 0 nan nan nan nan nan nan nan nan nan 0 0 nan nan nan nan nan nan nan nan 1 4 4 4 5 5 6 8 7 7 8 10 11 11 13 14 14 14 14 19 23 24 24 22 19 17 17 16 15 15 13 13 10 10 6
1 0 1 1 1 1 2 3 4 4 2 nan nan nan nan nan nan nan nan nan nan nan nan nan nan nan nan nan nan nan nan 0 0 0 nan nan nan nan nan nan nan 0 nan nan nan nan nan nan nan nan nan nan 5 5 6 6 6 7 8 8 8 9 10 13 13 13 14 16 16 16 18 23 22 22 20 18 18 18 16 15 15 14 13 12 12 10
0 0 0 1 1 1 2 4 6 6 4 3 2 2 nan nan nan nan nan nan nan nan nan nan nan nan nan nan nan nan nan 0 0 0 nan nan nan nan nan nan nan 0 nan nan nan nan 0 0 0 nan nan nan nan nan 9 6 6 6 7 8 8 9 11 12 12 13 15 17 17 17 16 19 19 19 17 16 18 18 17 16 16 15 14 11 11 7
nan 0 0 1 1 2 3 5 6 6 5 4 3 3 nan nan nan nan nan nan nan nan nan nan nan nan nan nan nan nan nan 0 0 0 nan nan nan nan nan 0 0 nan nan nan nan nan nan 0 0 0 0 nan nan nan 1 13 13 9 10 10 10 11 11 12 12 13 15 18 16 16 18 18 17 17 16 16 17 17 19 19 19 17 14 10 10 6
nan nan 0 1 1 2 3 3 6 6 6 5 3 3 nan nan nan nan nan nan nan nan nan nan nan nan nan nan nan nan nan nan 0 0 nan nan nan nan nan 0 0 0 nan nan nan nan 0 0 0 0 0 0 0 0 nan 5 5 9 14 13 13 13 10 13 13 13 15 17 17 17 16 17 17 17 16 17 19 19 20 22 22 19 12 9 9 6
0 nan 0 1 1 0 2 3 4 4 6 5 2 2 nan nan nan nan nan nan nan nan nan nan nan nan nan nan nan nan nan nan 0 0 nan nan nan nan nan 0 0 nan nan nan nan nan 0 1 1 1 1 1 0 0 0 nan nan nan 2 7 7 16 14 10 10 13 17 19 18 18 19 19 17 17 17 18 21 21 23 25 25 19 8 8 8 5
0 nan nan nan nan nan nan nan 0 0 0 nan nan nan nan nan nan nan nan nan nan nan nan nan nan nan nan nan nan nan nan nan 1 1 nan nan nan nan nan nan nan nan nan 0 0 nan nan nan nan 0 0 0 0 0 0 0 0 0 0 1 1 5 10 15 15 15 14 17 20 20 18 18 21 21 23 24 25 25 22 21 21 19 10 5 5 2
0 nan nan nan nan nan nan nan nan nan nan nan nan nan nan nan nan nan nan nan nan nan nan nan nan nan nan nan nan nan 0 nan 2 2 0 nan nan nan nan nan nan nan nan 0 0 nan nan nan nan 0 0 0 0 0 0 1 1 1 0 0 0 0 6 9 9 10 14 15 18 18 20 15 22 22 22 23 24 24 22 21 21 21 15 4 4 1
nan 0 0 0 0 nan nan nan nan nan nan nan nan nan nan nan nan nan nan nan nan nan nan nan nan nan nan nan nan nan 0 0 3 3 0 nan nan nan nan nan nan nan nan nan nan 0 0 1 1 1 0 1 1 1 1 1 1 1 nan nan nan nan nan 2 2 5 8 8 7 7 10 12 24 24 18 20 22 22 20 22 22 22 22 7 7 1
0 0 nan 0 0 0 nan 0 0 0 nan nan nan nan nan nan nan nan nan nan nan nan nan nan nan nan nan nan nan nan nan 0 4 4 1 nan nan nan nan nan nan nan nan nan nan nan nan 0 0 1 0 1 3 3 2 0 0 nan nan nan nan nan nan nan nan 0 2 2 4 4 3 4 9 9 13 17 20 20 22 24 24 24 24 14 14 3
nan 0 nan nan nan nan 0 0 0 0 0 nan nan nan nan nan nan nan nan nan nan nan nan nan nan nan nan nan nan nan nan 0 3 3 2 nan nan nan nan 0 0 0 nan 0 0 nan nan nan nan nan nan 0 0 0 nan nan nan nan nan nan nan nan nan nan nan nan nan nan 1 1 0 1 3 3 6 13 19 19 21 22 22 23 24 19 19 5
nan 0 nan nan nan nan nan nan nan nan 0 0 0 0 nan nan nan nan nan nan nan nan nan nan nan nan nan nan nan nan 0 0 1 1 2 nan nan nan nan 0 0 1 0 nan nan nan nan nan nan nan nan nan nan nan nan nan nan nan nan nan nan nan nan nan nan nan nan 0 0 0 1 1 3 3 4 10 14 14 19 23 23 20 20 19 19 7
nan 0 0 nan nan nan nan nan nan nan nan 0 0 0 nan nan nan nan nan nan nan nan nan nan nan nan nan nan nan nan nan 1 1 1 2 0 nan nan nan nan nan nan nan nan nan nan nan nan nan nan nan nan nan nan nan nan nan nan nan nan nan nan nan nan nan nan nan 0 1 1 2 2 1 1 3 8 8 8 9 11 11 19 20 18 18 11
0 0 0 nan nan nan nan nan 0 0 nan nan nan nan nan nan nan nan nan nan nan nan nan nan nan nan nan nan nan nan nan nan nan nan nan nan nan nan nan nan nan nan nan nan nan nan nan nan nan nan nan nan nan nan nan nan nan nan nan nan nan nan nan nan nan nan nan 0 3 3 3 1 1 1 2 5 6 6 7 8 8 13 15 18 18 20
0 0 0 nan nan nan nan 0 nan nan nan nan nan nan nan nan nan nan nan nan nan nan nan nan nan nan nan nan nan nan nan 0 1 1 nan nan nan nan nan nan nan nan nan nan nan nan nan nan nan nan nan nan nan nan nan nan nan nan nan nan nan nan nan nan nan nan nan nan 0 0 2 3 1 1 0 2 4 4 4 7 7 12 12 10 10 10
0 nan nan nan nan nan nan nan nan nan nan nan nan nan nan nan nan nan nan nan nan nan nan nan nan nan nan nan nan nan nan nan nan nan nan nan nan nan nan nan nan nan nan nan nan nan nan nan nan nan nan nan nan nan nan nan nan nan nan nan nan nan nan 0 0 nan nan nan 0 0 2 3 3 3 0 1 3 3 4 6 6 8 12 11 11 8
0 nan nan nan nan nan nan nan nan nan nan nan nan nan nan nan nan nan nan nan nan nan nan nan nan nan nan nan nan nan nan nan nan nan nan nan nan nan nan nan nan nan nan nan nan nan nan nan nan nan nan nan nan nan nan nan nan nan nan nan nan nan nan 0 0 0 nan nan 0 0 2 3 2 2 1 1 3 3 5 5 5 5 7 10 10 7
nan nan nan nan nan nan nan 0 0 0 nan nan nan nan nan nan nan nan nan nan nan nan nan nan nan nan nan nan nan nan nan nan nan nan nan nan nan nan nan nan nan nan nan nan nan nan nan nan nan nan nan nan nan nan nan nan nan nan nan nan nan nan nan nan nan nan nan nan 0 0 2 2 1 1 2 3 0 0 nan 1 1 2 2 1 1 0
nan nan nan nan nan nan 0 0 0 0 0 nan nan nan nan nan nan nan nan nan nan nan nan nan nan nan nan nan nan nan nan nan nan nan nan nan nan nan nan nan nan nan nan nan nan nan nan nan nan nan nan nan nan nan nan nan nan nan nan nan nan nan nan nan nan nan nan 0 0 0 1 3 1 1 1 nan nan nan nan nan nan nan nan nan nan nan
nan nan nan nan nan nan nan nan 0 0 0 0 0 0 0 nan nan nan nan nan nan nan nan nan nan nan nan nan nan nan nan nan nan nan nan nan nan nan nan nan nan nan nan nan nan nan nan nan nan nan nan nan nan nan nan nan nan nan nan nan nan nan nan nan nan nan nan 0 0 0 nan 1 0 0 nan nan nan nan nan nan nan nan nan nan nan nan
nan nan nan nan nan nan 0 0 0 0 nan 0 0 0 0 0 0 0 0 nan nan nan nan nan nan nan nan nan nan nan nan nan nan nan nan nan nan nan nan nan nan nan nan nan nan nan nan nan nan nan nan nan nan nan nan nan nan nan nan nan nan nan nan nan nan nan nan nan 0 0 nan 1 1 1 nan nan nan nan nan nan nan nan nan nan nan nan
nan nan nan nan nan nan 0 0 0 0 nan 0 0 0 0 0 0 0 0 nan nan nan nan nan nan nan nan nan nan nan nan nan nan nan nan nan nan nan nan nan nan nan nan nan nan nan nan nan nan nan nan nan nan nan nan nan nan nan nan nan nan nan nan nan nan nan nan nan nan nan nan 1 0 0 nan nan nan nan nan nan nan nan nan nan nan nan
0 0 0 0 0 0 nan 0 0 0 0 0 0 0 0 0 0 0 0 nan nan nan nan nan nan nan nan nan nan nan nan nan nan nan nan nan nan nan nan nan nan nan nan nan nan nan nan nan nan nan nan nan nan nan nan nan nan nan nan nan nan nan nan nan nan nan nan nan nan nan nan nan nan nan nan nan nan nan nan nan nan nan nan nan nan nan
0 nan 0 nan nan nan nan nan 0 0 0 0 0 0 nan 0 0 0 nan nan nan nan nan nan nan nan nan nan nan nan nan nan nan nan nan nan nan nan nan nan nan nan nan nan nan nan nan nan nan nan nan nan nan nan nan nan nan nan nan nan nan nan nan nan nan nan nan nan nan nan nan nan nan nan nan nan nan nan nan nan nan nan nan nan nan nan
0 nan nan nan nan nan nan 0 0 0 0 nan nan nan nan 0 nan nan nan nan nan nan nan nan nan nan nan nan nan nan nan nan nan nan nan nan nan nan nan nan nan nan nan nan nan nan nan nan nan nan nan nan nan nan nan nan nan nan nan nan nan nan nan nan nan nan nan nan nan nan nan nan nan nan nan nan nan nan nan nan nan nan nan nan nan nan
0 nan nan nan nan nan nan nan nan nan nan nan nan nan 0 nan nan nan nan nan nan nan nan nan nan nan nan nan nan nan nan nan nan nan nan nan nan nan nan nan nan nan nan nan nan nan nan nan nan nan nan nan nan nan nan nan nan nan nan nan nan nan nan nan nan nan nan nan nan nan nan nan nan nan nan nan nan nan nan nan nan nan nan nan nan nan
CIN
nan nan nan nan nan nan nan -0 -0 -0 -0 -0 -0 -0 -0 nan -0 -0 nan nan nan -0 -0 -0 -0 -0 nan nan nan nan nan nan nan nan nan nan nan nan nan nan nan nan nan nan nan nan nan nan nan nan nan nan -1 -1 -0 -0 -0 -0 -0 -0 -0 -0 -0 -0 -0 nan -15 -14 nan nan nan nan -10 -10 -9 -6 -3 -3 -3 -2 -2 -2 -1 -0 -0 -0
nan nan nan -0 -0 nan nan -0 -0 -0 -0 -0 -0 -0 nan -0 nan nan nan nan nan -0 -0 -0 -0 -1 -0 nan nan nan nan nan nan nan nan nan nan nan nan nan nan nan nan nan nan nan nan nan nan nan nan nan -2 -2 -1 -0 -0 -0 -0 -0 -0 -0 -0 -0 -0 -13 -12 -15 nan nan nan nan nan nan -6 -2 -0 -0 -0 -0 -0 -0 -0 -0 -0 -0
-0 nan nan -0 -0 -0 nan -0 -1 -1 nan -1 -1 -1 -0 -0 nan nan -0 nan nan -0 -0 nan nan -1 -0 nan nan nan nan nan nan nan nan nan nan nan nan nan nan nan nan nan nan nan nan nan nan nan nan nan nan nan -3 -1 -1 -0 -0 -0 -0 -0 -0 nan nan -14 -0 nan nan nan nan nan nan nan nan -0 -0 -0 -0 -0 -0 -0 -0 -0 -0 -0
nan nan nan nan nan nan nan nan -1 -1 -3 -2 -2 -2 -0 -1 nan nan nan -0 -0 -0 -0 -0 -0 -0 -0 -1 nan nan nan nan nan nan nan nan nan nan nan nan nan nan nan nan nan nan nan nan nan nan nan nan nan nan nan nan nan -2 -1 -1 -1 nan nan nan nan nan nan nan nan nan nan nan nan nan nan -0 -0 -0 -0 -0 -0 -0 -0 -0 -0 -0
nan nan nan nan nan nan nan nan nan nan nan nan -1 -1 -0 nan nan nan -0 -0 -0 -0 -0 -0 -0 -0 -0 -0 nan nan nan nan nan nan nan nan nan nan nan nan nan nan nan nan nan nan nan nan nan nan nan nan nan nan nan nan nan nan nan nan nan nan nan nan nan nan nan nan nan nan nan nan nan nan nan -0 -0 -0 -0 -0 -0 -0 -0 -0 -0 -0
nan nan nan nan nan nan nan nan nan nan nan nan nan nan nan nan nan nan -0 -0 -0 -0 nan nan nan -0 -0 -0 nan nan nan nan nan nan nan nan nan nan nan nan nan nan nan nan nan nan nan nan nan nan nan nan nan nan nan nan nan nan nan nan nan nan nan nan nan nan nan nan nan nan nan nan nan nan nan -2 -0 -0 -0 -0 -0 -0 -0 -0 -0 -0
nan nan nan nan nan nan nan nan nan nan nan nan nan nan nan nan nan nan nan -0 -0 nan -0 -0 -0 -0 -0 nan nan nan nan nan nan nan nan nan nan nan nan nan nan nan nan nan nan nan nan nan nan nan nan nan nan nan nan nan nan nan nan nan nan nan nan nan nan nan nan nan nan nan nan nan nan nan nan -5 -1 -1 -0 -0 -0 -0 -0 -0 -0 -0
nan nan nan nan nan nan nan nan nan nan nan nan nan nan nan nan nan nan nan nan nan nan nan nan nan -0 -0 -0 nan nan nan nan nan nan nan nan nan nan nan nan nan nan nan nan nan nan nan nan nan nan nan nan nan nan nan nan nan nan nan nan nan nan nan nan nan nan nan nan nan nan nan nan -0 -0 -0 -0 -0 -0 -0 -0 -0 -0 -0 -0 -0 -0
nan nan nan nan nan nan nan nan nan nan nan nan nan nan nan nan nan nan nan nan nan nan nan nan nan -0 -0 nan nan nan nan nan nan nan nan nan nan nan nan nan nan nan nan nan nan nan nan nan nan nan nan nan nan nan nan nan nan nan nan nan nan nan nan nan nan nan nan nan -0 -0 -0 -0 -0 -0 -0 -0 -0 -0 -0 -0 -0 -0 -0 -0 -0 -0
nan nan nan nan nan nan nan nan nan nan nan nan nan nan nan nan nan nan nan nan nan nan nan nan nan -0 nan nan nan nan nan nan nan nan nan nan nan nan nan nan nan nan nan nan nan nan nan nan nan nan -1 nan nan nan nan nan nan nan nan nan nan nan nan nan nan -0 -0 -0 -0 -0 -0 -0 -0 -0 -0 -0 -0 -0 -0 -2 -2 -0 -0 -0 -0 -0
nan nan nan nan nan nan nan nan nan nan nan nan nan nan nan nan nan nan nan nan nan nan nan nan nan nan nan nan nan nan nan nan nan nan nan nan nan nan nan nan nan nan nan nan nan nan nan nan nan nan nan nan nan nan nan nan nan nan nan nan nan nan nan -0 -0 -0 -0 -0 -0 -0 -0 -0 -0 -0 -0 -0 -0 -0 -4 -8 -8 -8 -4 -0 -0 -0
nan nan nan nan nan nan nan nan nan nan nan nan nan nan nan nan nan nan nan nan nan nan nan nan nan nan nan nan nan nan nan nan nan nan nan nan nan nan nan nan nan nan nan nan nan nan nan nan nan nan nan nan nan nan nan nan nan nan nan nan nan -0 -0 -0 -0 -0 -0 -0 -0 -0 nan -0 -0 -0 -0 -0 -3 -3 -7 -11 -11 -12 -9 -2 -2 -0
nan nan nan nan nan nan nan nan nan nan nan nan nan nan nan nan nan nan nan nan nan nan nan nan nan nan nan nan nan nan nan nan nan nan nan nan nan nan nan nan nan nan nan nan nan nan nan nan nan nan nan nan nan nan nan nan nan nan nan -0 -0 -0 -0 -0 -0 -0 -0 -0 -0 -0 -0 -0 -0 -0 -0 -1 -4 -4 -8 -10 -10 -11 -9 -4 -4 -0
nan nan nan nan nan nan nan nan nan nan nan nan nan nan nan nan nan nan nan nan nan nan nan nan nan nan nan nan nan nan nan nan nan nan nan nan nan nan nan nan nan nan nan nan nan nan nan nan nan nan nan nan nan nan nan nan nan nan nan -0 -0 -0 -0 -0 -0 -0 -0 -0 -0 -0 -0 -0 -0 -0 -0 -2 -5 -5 nan nan nan nan nan nan nan nan
nan nan nan nan nan nan nan nan nan nan nan nan nan nan nan nan nan nan nan nan nan nan nan nan nan nan nan nan nan nan nan nan nan nan nan nan nan nan nan nan nan nan nan nan nan nan nan nan nan nan nan nan nan nan nan -1 -1 nan -1 -0 -0 -0 -0 -0 -0 -0 -0 -0 -0 -0 -0 -1 -0 -0 -0 -2 -6 -6 nan nan nan nan nan nan nan nan
nan nan nan nan nan nan nan nan nan nan nan nan nan nan nan nan nan nan nan nan nan nan nan nan nan nan nan nan nan nan nan nan nan nan nan nan nan nan nan nan nan nan nan nan nan nan nan nan nan nan nan nan nan nan nan -0 -0 -0 -0 -0 -0 -0 -0 -0 -0 -0 -0 -0 -1 -1 -0 -1 -1 -1 -1 -1 -0 -0 nan nan nan nan nan nan nan nan
nan nan nan nan nan nan nan nan nan nan nan nan nan nan nan nan nan nan nan nan nan nan nan nan nan nan nan nan nan nan nan nan nan nan nan nan nan nan nan nan nan nan nan nan nan nan nan nan nan nan nan nan nan nan nan -1 -1 -0 -0 -0 -0 -0 -0 -0 -0 -0 -0 -0 -0 -0 -0 -0 -0 -0 -0 -1 -3 -3 nan nan nan nan nan nan nan nan
nan nan nan nan nan nan nan nan nan nan nan nan nan nan nan nan nan nan nan nan nan nan nan nan nan nan nan nan nan nan nan nan nan nan nan nan nan nan nan nan nan nan nan nan nan nan nan nan nan nan nan nan nan nan nan -0 -0 -0 -0 -0 -0 -0 -0 -0 -0 -0 -0 -0 -0 -0 -0 -0 -0 -0 -0 -0 -3 -3 -8 nan nan nan nan nan nan nan
nan nan nan nan nan nan nan nan nan nan nan nan nan nan nan nan nan nan nan nan nan nan nan nan nan nan nan nan nan nan -0 nan nan nan nan nan nan nan nan nan nan nan nan nan nan nan nan nan nan nan nan nan nan nan nan -0 -0 -0 -0 -0 -0 -0 -0 -0 -0 -0 -0 -0 -0 -0 -0 -0 -0 -0 -1 -2 -2 -2 -2 nan nan nan nan nan nan nan
nan nan nan nan nan nan nan nan nan nan nan nan nan nan nan nan nan nan nan nan nan nan nan nan nan nan nan nan -0 -0 -0 nan nan nan nan nan nan nan nan nan nan nan nan nan nan nan nan nan nan nan nan nan nan nan -0 -0 -0 -0 -0 -0 -0 -0 -0 -0 -0 -0 -0 -0 -0 -0 -0 -0 -0 -0 -0 -0 -1 -1 -0 -0 -0 -0 -1 nan nan nan
nan nan nan nan nan nan nan nan nan nan nan nan nan nan nan nan nan nan nan nan nan nan nan nan nan nan nan nan nan nan -0 nan nan nan nan nan nan nan -0 nan nan nan nan nan nan nan nan nan nan nan nan -1 -0 -0 -0 -0 -0 -0 -0 -0 -0 -0 -0 -0 -0 -0 -0 -0 -0 -0 -0 -0 -0 -0 -0 -0 -0 -0 -0 -0 -0 -0 -0 nan nan nan
nan nan nan nan nan nan nan nan nan nan nan nan nan nan nan nan nan nan nan nan nan nan nan nan nan nan nan nan nan nan -0 nan nan nan nan nan nan nan -0 nan nan nan nan nan nan nan nan nan nan nan -0 -0 -0 -0 -0 -0 -0 -0 -0 -0 -0 -0 -0 -0 -0 -0 -0 -0 -0 -0 -0 -0 -0 -0 -0 -0 -0 -0 -0 -0 -0 -0 -0 nan nan nan
nan nan nan nan nan nan nan nan nan nan nan nan nan nan nan nan nan nan nan nan nan nan nan nan nan nan nan nan nan nan nan nan nan nan nan nan nan nan -0 nan nan nan nan nan nan nan nan nan nan nan -0 -0 -0 -0 -0 -0 -0 -0 -0 -0 -0 -0 -0 -0 -0 -0 -0 -0 -0 -0 -0 -0 -0 -0 -0 -0 -0 -0 -0 -0 -0 -0 -0 -0 -0 nan
nan nan -0 nan nan nan nan nan nan nan -2 nan nan nan nan nan nan nan nan nan nan nan nan nan nan nan nan nan nan nan nan nan nan nan nan nan nan nan nan nan nan nan nan nan nan nan nan nan nan nan -0 -0 -0 -0 -0 -0 -0 -0 -0 -0 -0 -0 -0 -0 -0 -0 -0 -0 -0 -0 -0 -0 -0 -0 -0 -0 -0 -0 -0 -0 -0 -0 -0 -0 -0 -0
nan -0 -1 -1 -1 -0 -1 -1 nan nan nan nan nan nan nan nan nan nan nan nan nan nan nan nan nan nan nan nan nan nan nan nan nan nan nan -0 nan nan nan nan nan nan -0 nan nan nan nan nan nan nan nan -0 -0 -0 -0 -0 -0 -0 -0 -0 -0 -0 -0 -0 -0 -0 -0 -0 -0 -0 -0 -0 -0 -0 -0 -0 -0 -0 -0 -0 -0 -0 -1 -0 -0 -0
nan nan nan -0 -0 -0 -0 -0 -0 -0 nan nan nan nan nan nan nan nan nan nan nan nan nan nan nan nan nan nan nan nan nan -0 nan nan nan nan nan nan nan nan nan -0 -0 nan nan nan nan nan nan nan nan -0 -0 -0 -0 -0 -0 -0 -0 -0 -0 -0 -0 -0 -0 -0 -0 -0 -0 -0 -0 -0 -0 -0 -0 -0 -0 -0 -0 -0 -0 -1 -1 -0 -0 -0
-0 -0 -0 -0 -0 -0 -0 -0 -0 -0 -0 nan nan nan nan nan nan nan nan nan nan nan nan nan nan nan nan nan nan nan nan -0 -0 -0 nan nan nan nan nan nan nan -0 nan nan nan nan nan nan nan nan nan nan -0 -0 -0 -0 -0 -0 -0 -0 -0 -0 -0 -0 -0 -0 -0 -0 -0 -0 -0 -0 -0 -0 -0 -0 -0 -0 -0 -0 -0 -0 -0 -0 -0 -0
-0 -0 -0 -0 -0 -0 -0 -0 -0 -0 -0 -0 -0 -0 nan nan nan nan nan nan nan nan nan nan nan nan nan nan nan nan nan -0 -0 -0 nan nan nan nan nan nan nan -0 nan nan nan nan -0 -0 -0 nan nan nan nan nan -0 -0 -0 -0 -0 -0 -0 -0 -0 -0 -0 -0 -0 -0 -0 -0 -0 -0 -0 -0 -0 -0 -0 -0 -0 -0 -0 -0 -0 -0 -0 -0
nan -0 -0 -0 -0 -0 -0 -0 -0 -0 -0 -0 -0 -0 nan nan nan nan nan nan nan nan nan nan nan nan nan nan nan nan nan -0 -0 -0 nan nan nan nan nan -0 -0 nan nan nan nan nan nan -0 -0 -0 -0 nan nan nan -2 -0 -0 -0 -0 -0 -0 -0 -0 -0 -0 -0 -0 -0 -0 -0 -0 -0 -0 -0 -0 -0 -0 -0 -0 -0 -0 -0 -0 -0 -0 -0
nan nan -0 -0 -0 -0 -0 -0 -0 -0 -0 -0 -0 -0 nan nan nan nan nan nan nan nan nan nan nan nan nan nan nan nan nan nan -0 -0 nan nan nan nan nan -0 -0 -0 nan nan nan nan -0 -0 -0 -0 -0 -0 -0 -0 nan -1 -1 -0 -0 -0 -0 -0 -0 -0 -0 -0 -0 -0 -0 -0 -0 -0 -0 -0 -0 -0 -0 -0 -0 -0 -0 -0 -0 -0 -0 -0
-0 nan -0 -0 -0 -0 -0 -0 -0 -0 -0 -0 -0 -0 nan nan nan nan nan nan nan nan nan nan nan nan nan nan nan nan nan nan -0 -0 nan nan nan nan nan -0 -0 nan nan nan nan nan -0 -0 -0 -0 -0 -0 -0 -0 -0 nan nan nan -1 -0 -0 -0 -0 -0 -0 -0 -0 -0 -0 -0 -0 -0 -0 -0 -0 -0 -0 -0 -0 -0 -0 -0 -0 -0 -0 -0
-0 nan nan nan nan nan nan nan -0 -0 -0 nan nan nan nan nan nan nan nan nan nan nan nan nan nan nan nan nan nan nan nan nan -0 -0 nan nan nan nan nan nan nan nan nan -0 -0 nan nan nan nan -0 -0 -0 -0 -0 -0 -0 -0 -0 -0 -0 -0 -1 -0 -0 -0 -0 -0 -0 -0 -0 -0 -0 -0 -0 -0 -0 -0 -0 -0 -0 -0 -0 -0 -0 -0 -0
-0 nan nan nan nan nan nan nan nan nan nan nan nan nan nan nan nan nan nan nan nan nan nan nan nan nan nan nan nan nan -0 nan -0 -0 -0 nan nan nan nan nan nan nan nan -0 -0 nan nan nan nan -0 -0 -0 -0 -0 -0 -0 -0 -0 -0 -0 -0 -1 -0 -0 -0 -0 -0 -0 -0 -0 -0 -0 -0 -0 -0 -0 -0 -0 -0 -0 -0 -0 -0 -1 -1 -0
nan -0 -0 -0 -0 nan nan nan nan nan nan nan nan nan nan nan nan nan nan nan nan nan nan nan nan nan nan nan nan nan -0 -0 -0 -0 -1 nan nan nan nan nan nan nan nan nan nan -0 -0 -0 -0 -0 -0 -0 -0 -0 -0 -0 -0 -0 nan nan nan nan nan -0 -0 -0 -0 -0 -1 -1 -0 -0 -0 -0 -0 -0 -0 -0 -0 -0 -0 -0 -0 -0 -0 -0
-0 -0 nan -0 -0 -0 nan -0 -0 -0 nan nan nan nan nan nan nan nan nan nan nan nan nan nan nan nan nan nan nan nan nan -0 -0 -0 -1 nan nan nan nan nan nan nan nan nan nan nan nan -0 -0 -0 -0 -0 -0 -0 -0 -0 -0 nan nan nan nan nan nan nan nan -0 -1 -2 -1 -1 -2 -2 -0 -0 -0 -0 -0 -0 -0 -0 -0 -0 -0 -0 -0 -0
nan -0 nan nan nan nan -0 -0 -0 -0 -0 nan nan nan nan nan nan nan nan nan nan nan nan nan nan nan nan nan nan nan nan -0 -0 -0 -1 nan nan nan nan -0 -0 -0 nan -0 -0 nan nan nan nan nan nan -0 -0 -0 nan nan nan nan nan nan nan nan nan nan nan nan nan nan -2 -2 -3 -2 -1 -1 -0 -0 -0 -0 -0 -0 -0 -0 -0 -1 -1 -0
nan -0 nan nan nan nan nan nan nan nan -0 -0 -0 -0 nan nan nan nan nan nan nan nan nan nan nan nan nan nan nan nan -0 -0 -1 -1 -1 nan nan nan nan -1 -1 -0 -1 nan nan nan nan nan nan nan nan nan nan nan nan nan nan nan nan nan nan nan nan nan nan nan nan -1 -2 -2 -2 -2 -0 -0 -0 -0 -0 -0 -0 -0 -0 -0 -0 -1 -1 -0
nan -0 -0 nan nan nan nan nan nan nan nan -0 -0 -0 nan nan nan nan nan nan nan nan nan nan nan nan nan nan nan nan nan -0 -0 -0 -0 -1 nan nan nan nan nan nan nan nan nan nan nan nan nan nan nan nan nan nan nan nan nan nan nan nan nan nan nan nan nan nan nan -2 -0 -0 -0 -0 -0 -0 -1 -1 -1 -1 -2 -5 -5 -0 -0 -2 -2 -0
-0 -0 -0 nan nan nan nan nan -0 -0 nan nan nan nan nan nan nan nan nan nan nan nan nan nan nan nan nan nan nan nan nan nan nan nan nan nan nan nan nan nan nan nan nan nan nan nan nan nan nan nan nan nan nan nan nan nan nan nan nan nan nan nan nan nan nan nan nan -1 -0 -0 -0 -1 -3 -3 -4 -4 -2 -2 -2 -3 -3 -2 -2 -1 -1 -0
-0 -0 -0 nan nan nan nan -0 nan nan nan nan nan nan nan nan nan nan nan nan nan nan nan nan nan nan nan nan nan nan nan -2 -0 -0 nan nan nan nan nan nan nan nan nan nan nan nan nan nan nan nan nan nan nan nan nan nan nan nan nan nan nan nan nan nan nan nan nan nan -1 -1 -0 -0 -1 -1 -2 -1 -1 -1 -1 -0 -0 -0 -2 -2 -2 -3
-0 nan nan nan nan nan nan nan nan nan nan nan nan nan nan nan nan nan nan nan nan nan nan nan nan nan nan nan nan nan nan nan nan nan nan nan nan nan nan nan nan nan nan nan nan nan nan nan nan nan nan nan nan nan nan nan nan nan nan nan nan nan nan -0 -0 nan nan nan -2 -2 -0 -0 -0 -0 -0 -2 -4 -4 -0 -0 -0 -1 -0 -1 -1 -5
-0 nan nan nan nan nan nan nan nan nan nan nan nan nan nan nan nan nan nan nan nan nan nan nan nan nan nan nan nan nan nan nan nan nan nan nan nan nan nan nan nan nan nan nan nan nan nan nan nan nan nan nan nan nan nan nan nan nan nan nan nan nan nan -0 -0 -0 nan nan -2 -2 -0 -0 -0 -0 -0 -0 -3 -3 -1 -1 -1 -3 -1 -0 -0 -2
nan nan nan nan nan nan nan -0 -0 -0 nan nan nan nan nan nan nan nan nan nan nan nan nan nan nan nan nan nan nan nan nan nan nan nan nan nan nan nan nan nan nan nan nan nan nan nan nan nan nan nan nan nan nan nan nan nan nan nan nan nan nan nan nan nan nan nan nan nan -1 -1 -0 -0 -0 -0 -0 -0 -9 -9 nan -4 -4 -3 -3 -6 -6 -10
nan nan nan nan nan nan -0 -0 -0 -0 -0 nan nan nan nan nan nan nan nan nan nan nan nan nan nan nan nan nan nan nan nan nan nan nan nan nan nan nan nan nan nan nan nan nan nan nan nan nan nan nan nan nan nan nan nan nan nan nan nan nan nan nan nan nan nan nan nan -0 -1 -1 -0 -0 -0 -0 -0 nan nan nan nan nan nan nan nan nan nan nan
nan nan nan nan nan nan nan nan -0 -0 -0 -0 -0 -0 -0 nan nan nan nan nan nan nan nan nan nan nan nan nan nan nan nan nan nan nan nan nan nan nan nan nan nan nan nan nan nan nan nan nan nan nan nan nan nan nan nan nan nan nan nan nan nan nan nan nan nan nan nan -0 -0 -0 nan -0 -1 -1 nan nan nan nan nan nan nan nan nan nan nan nan
nan nan nan nan nan nan -0 -0 -0 -0 nan -0 -0 -0 -0 -0 -0 -0 -0 nan nan nan nan nan nan nan nan nan nan nan nan nan nan nan nan nan nan nan nan nan nan nan nan nan nan nan nan nan nan nan nan nan nan nan nan nan nan nan nan nan nan nan nan nan nan nan nan nan -0 -0 nan -0 -0 -0 nan nan nan nan nan nan nan nan nan nan nan nan
nan nan nan nan nan nan -0 -0 -0 -0 nan -0 -0 -0 -0 -0 -0 -0 -0 nan nan nan nan nan nan nan nan nan nan nan nan nan nan nan nan nan nan nan nan nan nan nan nan nan nan nan nan nan nan nan nan nan nan nan nan nan nan nan nan nan nan nan nan nan nan nan nan nan nan nan nan -0 -0 -0 nan nan nan nan nan nan nan nan nan nan nan nan
-0 -0 -0 -0 -0 -0 nan -0 -0 -0 -0 -0 -0 -0 -0 -0 -0 -0 -0 nan nan nan nan nan nan nan nan nan nan nan nan nan nan nan nan nan nan nan nan nan nan nan nan nan nan nan nan nan nan nan nan nan nan nan nan nan nan nan nan nan nan nan nan nan nan nan nan nan nan nan nan nan nan nan nan nan nan nan nan nan nan nan nan nan nan nan
-0 nan -0 nan nan nan nan nan -0 -0 -0 -0 -0 -0 nan -0 -0 -0 nan nan nan nan nan nan nan nan nan nan nan nan nan nan nan nan nan nan nan nan nan nan nan nan nan nan nan nan nan nan nan nan nan nan nan nan nan nan nan nan nan nan nan nan nan nan nan nan nan nan nan nan nan nan nan nan nan nan nan nan nan nan nan nan nan nan nan nan
-0 nan nan nan nan nan nan -0 -0 -0 -0 nan nan nan nan -0 nan nan nan nan nan nan nan nan nan nan nan nan nan nan nan nan nan nan nan nan nan nan nan nan nan nan nan nan nan nan nan nan nan nan nan nan nan nan nan nan nan nan nan nan nan nan nan nan nan nan nan nan nan nan nan nan nan nan nan nan nan nan nan nan nan nan nan nan nan nan
-0 nan nan nan nan nan nan nan nan nan nan nan nan nan -0 nan nan nan nan nan nan nan nan nan nan nan nan nan nan nan nan nan nan nan nan nan nan nan nan nan nan nan nan nan nan nan nan nan nan nan nan nan nan nan nan nan nan nan nan nan nan nan nan nan nan nan nan nan nan nan nan nan nan nan nan nan nan nan nan nan nan nan nan nan nan nan
Wind_Speed
3 4 4 6 6 6 6 9 9 7 6 6 5 5 4 4 4 4 5 5 5 6 7 7 8 8 9 9 10 11 12 13 14 14 15 15 15 15 15 15 15 16 17 19 21 23 25 25 26 26 26 26 26 26 25 24 24 24 24 24 24 24 23 23 22 21 20 19 18 17 15 14 13 13 12 12 12 12 12 11 11 11 10 10 10 10
3 3 4 6 7 7 6 9 9 8 7 7 6 6 5 5 4 3 3 4 5 5 5 5 6 7 8 7 9 11 12 14 14 15 15 15 15 15 15 15 16 17 18 21 23 25 26 26 26 27 27 27 27 26 26 26 25 25 25 25 25 24 24 23 22 21 20 19 18 16 15 14 13 13 13 13 13 12 12 12 11 11 11 10 10 10
3 3 4 6 7 6 5 8 8 7 7 7 6 6 7 7 5 4 3 3 4 4 4 4 4 5 6 6 8 11 13 15 15 16 15 15 15 15 15 15 16 18 20 22 25 26 27 27 27 28 28 27 27 27 26 26 26 26 26 26 25 24 23 23 22 20 19 18 17 15 14 14 13 13 13 13 13 13 12 12 12 11 11 10 10 10
4 4 5 5 5 5 5 6 5 5 5 5 6 6 8 6 5 4 3 3 3 3 4 4 4 4 4 4 7 10 14 16 16 16 15 15 14 14 15 16 17 19 22 24 26 27 28 28 28 29 28 28 27 27 27 27 27 26 26 25 24 23 23 21 20 19 18 17 15 14 14 14 14 14 14 13 13 13 12 12 11 11 10 10 10 9
4 4 5 4 4 4 3 4 4 3 3 3 4 5 5 4 4 3 3 3 3 3 3 3 3 3 3 4 6 9 14 16 16 15 14 13 13 13 14 15 17 20 23 25 27 28 29 29 29 29 29 29 28 28 27 27 27 26 25 24 23 22 21 20 19 17 16 16 15 14 14 14 14 13 13 13 13 12 12 11 11 11 10 10 10 10
4 4 4 4 3 2 2 2 3 3 3 3 3 3 3 2 3 2 3 3 3 2 1 1 1 2 2 3 5 8 11 14 14 14 13 13 13 13 14 16 18 20 22 24 26 27 28 29 29 29 29 29 29 29 28 28 27 26 25 24 23 22 20 19 18 17 16 16 15 14 13 13 12 11 11 11 11 11 11 11 11 11 11 11 11 12
4 3 3 3 2 2 1 2 3 3 3 3 3 2 2 2 2 2 2 2 2 2 1 1 1 1 0 1 3 5 8 11 12 12 13 13 14 15 16 18 19 21 22 24 25 26 27 27 28 29 29 29 29 29 28 28 27 26 24 23 22 21 20 19 18 18 17 16 15 14 12 11 10 9 8 8 9 9 10 11 11 12 12 13 13 13
5 3 3 3 2 2 1 1 2 3 4 4 4 3 3 2 2 2 2 2 2 2 2 1 1 1 1 1 1 3 5 7 9 10 11 13 15 17 18 20 22 23 24 24 25 25 26 27 27 28 28 28 28 28 28 27 26 25 24 23 22 21 21 20 19 18 18 17 15 14 12 10 9 8 7 8 9 10 11 12 13 13 14 14 14 14
7 6 4 4 4 3 2 2 2 3 3 3 4 4 4 4 3 2 2 2 1 1 1 2 2 1 1 1 1 2 3 4 6 7 8 10 12 15 18 21 23 24 25 26 26 27 27 27 27 28 28 28 28 27 27 26 25 24 24 23 22 21 21 20 20 19 18 17 16 14 13 11 10 10 10 11 11 12 13 14 14 14 14 14 14 14
7 7 6 5 4 4 4 3 3 2 2 2 3 4 4 5 5 4 3 2 1 1 1 2 2 2 1 1 2 2 4 5 6 7 8 10 12 14 16 18 21 23 26 27 28 28 28 28 28 28 27 27 27 27 26 25 24 24 23 23 22 22 22 21 21 20 19 18 17 16 14 13 13 13 13 14 14 14 14 14 14 14 14 14 13 13
7 6 6 5 4 3 3 3 3 2 2 2 2 2 2 4 5 6 6 4 2 1 1 1 1 2 2 2 2 3 4 5 6 7 9 11 12 14 15 16 19 22 25 26 27 28 28 28 27 27 27 26 26 26 25 25 24 24 23 23 23 23 22 22 21 20 20 19 18 17 16 16 16 16 16 15 15 14 14 13 13 13 13 12 12 12
6 6 5 5 4 3 3 3 2 2 2 3 3 2 2 3 4 5 7 6 5 3 2 1 1 1 2 1 2 2 4 5 6 6 7 8 9 11 11 13 15 18 21 22 24 25 27 27 26 25 25 25 25 24 24 23 23 23 23 23 23 23 23 22 22 21 20 19 19 18 18 18 17 17 17 16 14 13 12 11 10 10 11 11 11 11
6 5 5 5 5 5 4 4 3 3 3 4 5 5 5 4 3 3 5 5 5 5 4 3 2 2 3 3 2 1 3 5 5 5 5 5 6 7 7 8 9 11 12 13 15 17 22 24 24 23 23 23 23 23 23 23 23 23 23 23 23 23 23 22 22 21 20 20 19 19 19 18 18 17 16 15 13 12 10 9 8 8 9 9 10 10
6 6 5 5 5 5 5 6 6 6 6 6 6 6 5 4 3 3 4 4 4 4 4 4 3 2 2 3 3 2 2 4 5 5 5 4 4 4 6 7 7 7 7 8 9 11 16 17 18 19 21 22 22 22 22 23 23 23 23 23 23 23 22 22 21 21 20 20 19 19 18 18 17 16 15 13 12 11 9 8 7 7 7 8 9 9
7 7 7 6 6 6 6 7 7 7 7 5 5 4 4 4 4 4 5 5 4 4 3 4 3 2 1 2 3 3 1 3 5 5 5 3 2 2 4 6 6 6 6 7 7 9 12 12 12 14 17 19 20 20 21 22 22 23 23 23 23 22 22 21 21 20 20 19 19 18 17 17 16 15 14 13 12 11 10 9 8 7 7 7 8 8
6 7 7 8 7 7 6 6 7 7 6 5 5 5 6 6 6 6 6 6 6 5 4 4 4 2 1 1 2 3 2 2 5 6 7 4 2 2 2 4 6 6 6 6 7 7 7 8 9 11 14 18 20 21 21 22 22 23 23 22 22 22 21 21 20 20 19 18 18 17 17 16 15 15 14 14 13 12 11 10 9 8 8 7 7 7
5 6 7 7 7 6 6 6 6 6 6 5 5 5 6 6 6 6 7 7 6 5 5 5 5 3 1 1 2 2 2 1 4 7 8 5 2 3 3 2 6 7 7 6 6 6 6 7 8 9 12 17 20 22 22 22 22 22 22 22 22 21 21 20 20 19 19 18 18 17 17 16 16 16 15 15 14 13 12 11 11 10 9 8 8 7
4 5 5 5 6 5 5 5 5 5 5 5 5 5 5 5 5 6 7 7 6 6 6 5 5 5 5 3 2 1 2 1 4 7 7 5 2 2 4 0 4 6 7 6 6 5 6 6 7 9 12 19 22 22 23 23 22 22 22 21 21 21 20 20 19 19 19 18 18 18 17 17 16 16 16 15 14 13 13 12 11 11 10 10 9 8
4 4 4 4 4 4 5 5 5 5 6 6 6 6 6 5 4 5 5 6 7 7 7 6 5 5 5 4 3 1 1 1 3 6 7 5 2 2 3 0 3 5 6 5 5 4 5 6 8 12 16 21 23 23 23 23 23 22 22 21 21 20 20 20 19 19 19 19 18 18 17 17 16 15 14 14 13 13 12 12 12 11 11 11 10 10
4 4 4 4 5 5 4 4 4 5 6 6 7 7 7 6 5 5 5 5 5 5 5 4 4 4 4 4 3 2 1 1 3 5 6 5 3 1 3 0 3 5 5 4 3 3 4 5 8 12 18 20 22 23 23 23 22 22 21 21 20 20 20 20 19 19 19 19 18 17 17 16 15 14 13 13 12 12 12 12 12 12 12 12 11 11
5 4 4 4 5 5 5 4 4 4 5 6 6 7 6 6 6 5 5 5 5 4 3 3 3 3 3 4 4 2 1 2 3 4 4 4 2 1 2 0 3 5 5 4 3 2 3 5 6 9 14 19 21 22 22 22 21 21 21 20 20 20 20 19 19 19 19 18 17 17 16 15 14 13 13 13 13 13 13 13 13 13 13 12 12 11
4 4 4 5 5 5 5 5 5 5 6 6 6 6 6 6 6 6 5 5 4 4 3 3 3 3 4 4 4 2 0 1 2 4 4 4 3 1 2 0 3 5 5 3 3 2 3 4 5 7 12 17 20 20 20 20 20 20 20 20 20 19 19 19 19 18 18 17 17 16 15 15 15 14 14 14 14 15 15 15 15 14 14 13 12 12
3 3 4 4 4 4 4 5 5 6 6 5 5 5 4 5 6 5 5 4 4 4 5 4 4 4 5 5 4 2 2 2 2 2 4 5 4 2 1 0 3 4 4 3 3 3 4 4 4 6 11 16 18 18 19 19 19 19 19 19 19 19 19 18 18 18 17 17 16 16 16 15 16 16 16 16 16 16 16 16 15 15 14 13 12 11
3 3 4 4 4 4 4 5 5 5 5 4 3 3 3 3 3 3 4 4 5 5 5 5 6 6 5 4 3 2 2 2 2 2 3 4 4 2 0 1 3 5 4 3 3 3 4 4 4 5 7 13 16 17 17 18 18 18 18 18 18 18 18 18 17 17 17 16 16 16 16 16 16 17 17 18 17 17 17 16 15 14 13 12 12 11
3 4 4 4 5 5 6 6 7 7 6 5 4 4 5 6 6 6 6 6 6 6 6 6 6 5 4 3 3 2 1 2 2 1 2 3 3 2 1 2 3 5 4 3 3 3 3 4 4 4 5 9 13 16 16 17 17 17 17 17 17 17 17 16 16 16 16 16 16 16 16 17 17 17 18 18 17 17 16 15 14 14 13 13 12 12
5 6 6 7 8 9 10 10 10 10 9 7 6 6 6 7 7 6 6 5 5 6 7 7 6 5 4 3 2 2 1 2 2 2 2 3 3 3 1 2 3 4 4 3 2 2 3 3 3 3 3 6 10 14 15 16 16 16 16 16 16 16 16 15 15 15 15 15 15 16 16 17 17 17 17 17 17 16 15 15 14 14 14 13 13 13
10 10 11 11 12 12 13 13 14 14 13 11 10 9 8 8 7 7 6 5 6 6 7 7 6 5 4 3 3 2 2 1 1 2 1 3 4 3 2 2 3 4 5 3 2 2 3 3 3 3 2 3 5 9 14 15 15 15 15 15 15 15 15 15 15 14 14 14 15 15 15 16 16 16 16 16 16 15 15 15 14 14 14 13 12 11
12 12 13 13 13 14 14 15 15 15 15 14 14 13 10 8 7 7 7 6 6 6 6 7 6 5 4 3 3 2 2 1 1 1 1 3 4 3 3 3 3 4 4 3 3 3 3 3 3 2 2 2 2 4 10 13 14 14 14 15 15 14 14 14 14 14 14 14 14 14 14 15 15 15 15 15 15 15 15 15 15 14 13 11 9 7
11 12 13 13 14 14 15 15 14 15 15 15 15 13 9 7 6 7 7 6 6 6 6 6 6 5 5 4 3 2 1 1 1 0 1 3 4 3 3 3 3 3 4 3 2 2 2 2 2 2 2 2 2 2 4 9 11 11 12 14 14 14 14 14 14 13 13 13 13 14 14 14 14 14 15 15 15 15 15 15 15 13 11 9 7 6
8 9 10 11 12 12 12 12 12 13 15 15 13 10 6 4 4 5 5 6 6 6 6 6 6 5 5 5 4 2 1 2 2 2 2 3 4 3 3 3 3 3 4 4 3 2 1 1 1 1 1 2 2 1 1 3 5 6 7 10 12 12 13 13 13 13 13 13 14 14 14 14 14 15 15 15 15 15 15 16 14 11 8 7 6 5
6 6 7 8 8 8 8 8 9 10 12 12 10 7 4 3 3 4 4 5 5 5 5 6 6 6 6 5 4 3 3 3 3 3 2 3 4 4 4 4 4 4 3 3 3 3 2 2 1 1 1 1 1 1 1 1 2 3 4 5 7 9 11 12 12 12 13 14 14 15 15 15 15 16 16 16 16 16 16 16 14 11 7 6 6 6
5 4 5 5 5 6 6 6 6 6 7 7 6 4 4 4 4 3 4 3 3 3 4 5 6 5 5 4 4 3 3 3 4 5 3 3 3 3 4 4 4 4 2 1 2 3 3 3 2 2 1 2 2 2 2 2 1 2 2 3 4 6 9 11 11 11 12 13 15 16 16 16 17 17 16 16 16 16 16 17 15 11 7 6 6 6
4 4 4 4 4 5 5 5 5 5 5 4 4 4 4 4 4 4 3 2 2 2 3 5 5 5 4 3 3 2 2 3 5 6 5 3 3 3 3 4 4 4 2 1 1 2 2 3 3 2 2 2 2 2 3 3 3 2 2 3 3 4 7 8 9 9 9 10 12 14 16 16 17 17 17 17 17 17 17 17 16 13 9 7 6 6
4 4 4 4 4 4 5 5 5 5 5 4 4 4 4 3 4 3 3 2 2 2 2 4 5 5 5 4 3 2 2 2 5 7 6 4 3 3 4 4 4 4 4 2 2 2 2 3 3 2 2 2 2 3 3 3 4 3 3 3 3 3 4 5 6 6 7 7 8 9 11 12 14 16 16 17 17 17 17 18 17 15 13 9 7 6
4 4 4 4 4 4 5 5 5 5 5 5 4 4 4 3 3 3 3 3 3 3 3 3 3 3 4 4 3 3 2 3 5 7 7 4 4 4 4 4 4 5 5 4 3 3 2 3 3 3 3 2 2 3 3 4 4 4 3 3 4 4 4 4 5 5 6 6 6 6 7 8 9 11 13 14 15 16 17 17 18 17 15 12 9 7
4 4 4 4 4 4 5 5 5 5 5 5 4 4 4 4 3 3 3 3 4 4 4 4 4 3 2 2 3 3 4 4 6 7 7 5 4 4 4 4 4 5 5 4 4 3 3 3 3 3 3 3 3 3 3 3 4 4 4 4 4 4 4 4 5 5 5 5 5 6 6 6 7 8 9 12 14 16 16 17 18 18 17 15 13 10
4 4 4 3 4 4 4 4 4 5 5 4 4 4 4 4 4 4 4 4 4 5 5 6 6 5 5 4 3 4 4 5 6 7 7 5 4 3 3 3 4 5 4 5 4 4 4 4 3 3 3 2 3 3 3 3 4 4 4 5 5 5 5 5 5 5 5 6 6 6 6 6 7 8 8 11 13 14 16 17 17 18 18 16 15 13
4 4 4 3 3 3 4 4 4 4 4 4 4 4 4 5 5 5 5 5 6 6 6 5 6 7 8 7 6 6 5 6 7 8 8 5 4 3 3 4 4 4 4 4 4 5 5 4 4 4 3 2 2 3 3 4 4 4 5 5 5 5 5 5 5 5 5 6 6 6 6 6 6 7 7 8 9 10 11 11 13 15 17 16 15 15
4 4 4 3 3 3 3 4 4 4 4 4 5 5 5 6 6 6 6 6 6 6 7 6 6 6 8 8 8 8 7 6 6 7 7 5 4 4 4 4 4 4 4 3 4 4 4 4 4 4 4 3 3 3 3 3 4 5 5 4 4 4 5 5 6 6 6 6 6 6 6 6 6 5 6 6 6 7 8 8 9 10 11 11 12 13
4 4 4 4 3 3 4 4 4 4 5 5 6 6 6 6 6 6 6 6 6 6 7 7 7 6 7 7 8 8 7 5 4 5 4 4 3 4 4 4 5 5 4 3 3 3 4 4 4 4 4 3 3 3 3 3 4 5 5 4 3 4 5 5 5 6 6 6 6 7 6 6 6 6 6 6 6 7 7 7 7 8 9 8 8 8
5 4 4 4 4 4 4 4 4 5 5 5 5 5 5 5 5 5 5 5 5 5 5 6 6 6 7 7 7 7 7 6 6 5 4 4 4 4 4 4 4 5 5 4 3 3 4 4 4 4 3 3 3 4 4 4 5 6 6 5 4 4 5 6 6 6 6 6 6 7 7 7 7 7 6 7 7 7 6 6 7 7 7 7 7 6
5 5 4 4 4 4 4 4 5 5 5 5 5 5 4 4 4 5 5 5 4 4 4 4 5 6 6 6 6 6 6 6 6 6 5 4 4 4 4 4 4 4 4 4 4 4 4 4 4 3 3 3 3 3 3 4 5 6 6 5 4 4 4 5 6 6 6 6 6 7 8 7 7 7 7 7 7 6 5 5 6 6 6 6 6 6
5 4 4 4 4 4 5 5 5 5 5 4 4 4 4 4 4 5 5 5 5 4 4 4 5 5 6 5 5 4 5 5 6 6 5 4 4 4 5 5 4 4 4 4 4 4 4 4 4 4 4 4 4 4 4 4 5 5 5 5 5 4 3 4 5 6 6 6 6 6 6 6 6 6 6 6 5 3 3 3 4 5 5 4 4 4
5 5 4 4 4 4 4 4 4 4 5 5 5 4 4 4 4 5 5 5 5 5 4 4 4 5 5 5 5 4 4 4 5 6 5 5 4 4 4 5 5 4 4 4 4 4 4 4 4 4 4 4 4 4 4 4 5 5 5 5 5 5 3 4 5 6 6 6 6 5 5 5 5 4 4 4 3 2 2 2 3 3 4 4 4 4
5 4 4 4 4 4 4 4 4 4 5 5 5 5 4 4 5 5 4 5 5 5 4 4 4 4 4 4 4 4 3 3 3 4 4 5 5 4 3 4 4 4 4 4 3 3 4 4 4 4 3 3 4 4 4 4 5 5 5 5 5 4 3 4 5 6 6 6 6 6 6 5 5 4 4 4 3 3 3 3 3 3 4 4 4 4
4 4 4 4 4 5 5 5 5 5 5 5 5 5 4 4 4 4 5 5 5 5 4 4 4 4 4 5 4 4 4 3 3 3 3 3 3 3 3 3 2 2 3 3 3 3 3 3 4 4 4 3 4 4 4 4 4 4 4 5 5 4 3 4 4 5 6 6 6 6 7 6 6 5 5 5 4 4 4 4 4 5 5 5 5 5
5 5 5 5 5 5 5 5 5 5 5 5 5 5 4 4 4 5 5 5 5 5 5 4 4 4 5 5 5 5 5 5 4 4 3 3 3 3 3 3 3 3 2 2 1 1 1 2 3 4 4 4 4 4 4 3 4 4 4 4 4 4 3 3 4 4 5 6 6 6 7 7 6 6 6 6 5 4 4 4 4 5 5 5 5 5
6 6 5 5 5 5 5 5 5 5 5 5 5 4 4 4 4 5 5 5 5 5 5 4 4 4 5 5 5 5 6 6 5 5 4 4 4 3 3 3 3 3 3 3 2 2 2 1 1 3 4 4 4 4 4 3 3 3 4 4 4 4 3 3 3 4 4 4 5 5 6 6 6 6 6 6 5 4 4 4 5 5 5 5 5 5
6 6 5 5 5 5 5 5 5 5 6 6 5 5 4 4 5 5 4 5 5 5 4 5 5 5 5 5 5 5 6 5 5 5 5 4 4 4 4 4 3 3 3 3 2 2 2 1 0 1 2 2 3 3 4 4 3 3 3 3 3 3 3 3 3 3 3 4 4 5 5 5 5 5 5 5 5 5 5 5 5 5 5 5 5 5
5 5 5 5 5 5 5 5 5 6 6 6 6 5 5 4 4 4 4 4 4 4 4 5 5 5 5 5 5 6 6 5 5 5 4 4 4 4 4 4 4 4 3 3 3 2 2 2 1 1 2 3 2 2 3 4 4 3 3 3 3 3 3 3 4 4 3 4 4 4 4 4 4 4 4 5 5 5 5 5 5 5 5 5 5 6
5 5 5 5 5 5 5 5 5 6 6 6 6 6 5 5 4 4 4 4 4 4 4 4 5 5 5 6 6 6 6 5 5 5 5 4 5 5 5 5 5 5 4 4 3 3 3 2 2 2 2 3 3 3 1 2 3 4 3 3 3 3 3 3 4 4 4 4 4 4 4 4 4 4 5 5 5 5 5 5 5 5 5 5 5 6
Wind_Direction
131 146 160 169 172 178 192 197 196 193 187 185 183 183 183 192 196 195 187 190 199 207 211 212 207 199 191 194 199 204 210 214 216 218 218 218 218 217 215 212 206 199 189 179 172 166 163 160 157 155 154 154 153 153 153 152 150 147 145 142 141 141 143 145 148 151 154 157 159 161 161 160 158 156 155 155 155 156 156 157 157 156 156 158 162 166
127 138 156 173 179 184 189 196 199 197 189 186 183 180 176 180 182 183 184 196 203 208 213 214 209 200 193 192 198 204 209 213 215 216 216 216 216 215 213 209 202 194 185 176 169 165 161 158 156 154 153 153 152 152 151 150 148 145 143 142 142 143 145 148 151 153 155 157 157 157 157 155 154 153 153 153 153 154 154 155 156 157 159 162 167 171
145 150 164 176 183 187 186 193 199 201 192 187 182 179 176 177 176 177 182 195 204 210 214 215 210 202 198 196 201 206 208 211 212 212 212 213 213 212 210 205 198 190 180 173 167 163 160 157 155 153 152 151 150 150 149 147 146 144 143 143 143 145 147 150 152 153 154 154 153 153 152 152 152 152 152 152 152 153 154 156 158 160 163 167 172 177
159 164 168 173 183 189 186 186 192 198 195 184 179 178 180 177 175 175 181 186 195 206 214 214 208 201 201 204 205 206 207 208 208 207 206 207 207 206 204 198 191 183 176 170 165 161 158 155 153 151 150 149 148 147 146 145 144 143 142 143 144 146 148 149 150 150 150 149 147 147 148 150 151 152 153 153 154 154 156 158 161 164 168 173 178 184
170 171 167 166 174 183 182 176 177 181 176 170 170 174 179 172 167 166 176 180 184 193 213 214 205 196 197 209 211 208 204 203 201 198 196 195 195 193 191 186 180 175 170 165 161 158 155 153 151 150 149 147 146 145 144 143 142 142 142 142 143 144 145 146 145 144 143 142 142 143 146 148 150 151 152 153 154 156 157 161 164 169 174 179 186 192
170 169 161 161 161 160 154 164 167 165 159 156 157 157 153 144 143 149 165 170 171 172 186 211 203 192 193 212 212 206 199 194 189 184 180 178 177 175 173 170 167 164 161 159 156 154 152 150 149 147 146 145 144 142 141 140 140 140 140 141 142 142 142 142 141 139 138 137 138 139 141 142 144 145 147 151 154 156 160 165 170 175 180 187 193 199
158 156 150 148 138 128 127 162 172 172 166 158 150 140 124 119 120 129 140 146 147 143 138 119 89 84 133 220 211 198 187 179 171 165 162 161 160 158 157 155 154 152 152 151 149 148 147 146 145 144 143 142 141 140 139 139 139 139 140 141 141 141 140 139 138 136 135 133 132 132 131 132 134 138 143 151 157 163 168 174 179 183 187 192 198 202
149 150 154 145 133 122 127 165 186 186 177 164 155 148 139 125 113 111 112 113 120 127 128 113 85 62 40 356 200 180 172 164 156 151 150 151 150 149 148 146 145 145 144 144 143 143 142 141 141 140 139 139 138 137 137 137 138 139 139 140 140 140 139 138 136 134 133 131 130 129 128 131 137 146 158 167 173 178 182 185 187 189 192 196 200 204
153 156 163 159 153 150 152 170 192 199 192 174 164 158 151 145 136 122 105 89 80 90 117 118 109 88 48 24 51 110 128 132 134 137 142 146 147 146 144 143 142 141 141 140 140 140 139 139 139 138 138 137 137 136 136 137 138 139 139 139 139 139 138 137 137 136 135 134 134 134 137 144 155 167 178 184 187 190 192 192 193 193 194 197 201 205
156 158 161 162 164 163 161 165 174 187 200 182 168 162 156 152 148 141 130 109 63 31 60 98 112 111 84 56 66 85 95 98 102 110 123 130 138 142 141 140 140 140 139 139 139 139 139 139 139 139 138 138 137 138 138 139 140 140 140 140 140 140 140 140 140 140 141 141 142 145 149 159 169 179 186 190 193 195 196 196 195 194 194 197 201 206
157 158 155 158 162 165 160 156 155 158 168 150 136 137 154 157 154 150 148 144 132 88 55 58 84 108 111 93 87 91 97 95 95 98 108 116 125 131 133 134 136 138 138 138 138 138 138 138 139 139 139 139 139 140 140 141 142 142 142 142 142 142 143 144 145 146 147 149 151 154 159 168 177 184 189 192 194 196 198 197 196 195 194 197 201 205
157 156 155 155 157 157 150 139 132 136 150 143 137 140 175 183 169 157 153 151 147 141 127 90 58 55 68 80 90 99 105 104 104 104 106 113 118 122 125 128 131 133 135 136 136 137 138 138 138 138 139 139 140 141 142 142 143 143 144 144 145 145 146 148 149 151 153 155 157 160 166 173 179 184 188 190 193 195 196 196 195 193 193 196 200 204
155 153 153 155 158 159 154 149 148 156 169 169 167 167 174 181 175 158 146 145 146 145 138 122 85 39 18 10 13 78 113 112 111 110 110 113 118 123 126 127 128 130 132 133 135 136 137 137 138 138 139 140 141 142 143 144 145 145 146 146 147 148 149 150 152 154 157 159 161 164 168 173 178 181 184 186 188 190 190 190 189 189 190 194 198 201
152 151 151 157 164 167 165 164 166 170 178 180 176 170 160 158 154 146 132 131 133 133 127 119 109 77 14 355 343 347 103 117 114 109 105 102 109 121 128 129 130 130 131 132 135 138 139 138 137 138 140 141 141 143 144 145 146 147 148 148 149 150 151 153 154 157 159 161 162 164 167 170 174 177 180 181 182 182 181 180 179 181 185 190 194 197
155 155 158 165 170 172 173 173 175 175 177 174 165 151 136 143 147 146 136 133 131 127 118 115 109 93 24 354 337 335 7 123 122 115 107 88 69 80 116 125 127 127 128 130 134 137 140 138 138 139 142 143 144 146 147 148 149 149 150 150 151 151 152 154 155 157 159 160 161 162 163 167 170 174 177 178 178 177 175 173 173 175 178 184 189 193
159 160 165 169 172 174 177 177 176 175 170 161 152 146 147 155 158 154 144 141 139 137 135 130 121 101 6 338 333 331 323 134 130 125 118 100 45 11 55 123 128 127 127 128 131 134 137 136 136 139 142 145 147 147 148 150 151 151 151 151 152 152 153 154 155 157 158 159 159 160 162 166 169 173 177 178 178 177 174 173 173 174 177 181 185 188
161 166 168 167 169 173 174 175 174 170 160 153 152 154 159 162 161 156 149 145 144 147 153 149 145 142 147 292 310 312 304 159 137 130 123 113 63 351 352 127 135 133 131 129 130 133 135 134 135 138 143 146 148 148 149 150 151 151 151 152 152 152 153 154 155 157 158 159 161 162 164 167 171 175 178 180 179 178 176 176 176 177 180 184 187 189
162 166 164 163 166 167 166 171 170 164 154 151 151 153 155 158 157 155 153 151 152 155 161 162 160 157 153 176 210 262 296 203 144 132 124 115 83 348 331 14 136 133 129 129 130 134 137 138 140 142 144 148 149 149 149 150 151 152 152 152 153 153 154 155 157 158 160 162 164 165 167 170 173 177 179 180 181 180 179 179 180 182 185 189 192 194
161 161 159 160 158 157 160 168 168 164 160 158 152 148 145 151 156 158 160 160 160 161 162 164 165 164 158 163 159 155 291 220 149 131 126 120 100 4 325 349 127 124 121 121 123 128 133 136 141 144 146 149 149 150 150 151 152 152 153 153 154 155 156 157 159 161 163 165 166 167 168 170 173 176 179 181 182 183 184 185 187 189 191 194 197 199
163 164 164 155 150 150 161 171 173 169 167 158 150 145 145 149 155 162 166 164 162 160 156 157 158 156 149 137 121 102 289 195 139 127 124 119 106 26 327 146 127 119 110 104 101 108 123 131 137 143 147 149 150 151 151 152 153 154 155 155 156 157 158 160 161 163 165 166 166 167 167 169 171 174 177 181 184 187 190 192 194 195 197 198 200 203
165 168 167 155 152 155 165 168 169 166 163 151 143 140 143 148 156 163 167 160 155 150 144 139 135 132 125 122 122 126 207 158 138 129 121 112 100 48 326 86 120 115 106 95 81 78 102 120 131 141 147 150 151 151 152 153 154 155 156 157 158 159 160 161 163 164 165 166 166 167 167 169 172 175 179 184 189 192 195 197 197 198 199 200 201 203
162 163 155 152 154 158 156 153 153 155 155 150 147 146 148 153 158 162 161 155 148 137 119 104 94 93 98 109 114 117 89 112 128 128 119 113 108 86 318 338 110 109 104 94 77 66 78 100 116 134 146 150 151 151 152 154 155 156 157 158 159 159 160 162 163 164 166 167 168 169 171 174 177 180 184 189 193 196 198 198 198 198 198 198 199 202
144 144 142 147 148 145 139 139 142 147 150 150 148 146 145 151 155 156 155 146 128 112 100 94 87 83 84 91 90 76 32 33 67 103 113 121 126 135 293 75 102 100 95 87 74 66 72 84 101 125 140 148 150 151 152 153 155 156 156 157 158 159 160 162 163 165 167 169 171 173 176 180 183 186 190 193 195 197 198 198 197 196 195 196 197 200
122 128 134 139 139 136 133 138 141 144 145 137 124 111 107 111 111 109 104 99 99 101 106 103 95 88 84 86 80 61 26 19 29 69 102 116 123 128 219 103 99 96 88 75 68 70 79 83 92 113 132 147 149 150 151 152 153 154 155 156 157 159 160 163 165 167 170 172 175 179 183 186 189 192 194 196 196 196 196 195 193 192 192 193 196 199
117 123 129 133 137 139 140 143 144 144 139 128 116 105 100 94 88 84 82 88 98 107 112 107 104 104 107 106 97 73 27 11 16 50 100 108 111 108 65 77 93 97 91 72 58 62 82 86 89 102 123 143 148 150 151 152 153 154 155 156 158 160 163 165 168 171 174 177 181 185 189 192 194 195 197 197 196 195 193 191 190 190 191 193 196 200
115 119 123 128 133 137 139 142 143 142 137 132 127 122 117 111 104 101 101 110 120 124 122 119 120 123 125 122 120 116 76 19 9 22 88 108 111 104 61 59 84 96 98 80 60 60 83 90 89 92 108 138 148 152 154 154 155 156 157 159 161 164 167 170 173 176 179 183 186 190 194 196 197 198 198 197 196 194 191 190 190 190 192 194 197 201
117 120 123 127 131 135 138 140 140 139 137 135 134 133 131 127 124 123 129 140 144 141 134 132 130 129 126 128 133 134 117 66 20 14 55 105 112 112 100 83 91 98 99 85 64 60 81 89 90 88 89 115 142 154 159 160 160 161 162 164 166 169 172 174 178 181 184 187 191 194 197 199 200 200 199 198 196 194 192 192 192 192 194 195 198 202
119 123 126 129 133 136 139 140 141 140 139 137 138 138 138 137 139 145 155 158 155 149 143 140 139 139 141 143 138 128 114 98 54 24 56 104 112 118 126 109 102 101 102 89 64 51 59 72 77 77 72 67 108 151 162 165 166 166 169 170 172 174 176 179 181 184 187 190 194 197 200 202 203 202 202 200 198 197 195 194 194 195 196 197 199 202
118 123 127 130 134 136 139 140 140 140 140 139 140 142 144 146 150 155 159 159 156 153 148 145 144 142 139 132 119 105 104 127 143 135 111 104 108 116 126 116 112 111 110 102 80 52 37 48 56 64 71 65 66 108 154 169 170 170 174 176 178 179 181 183 185 188 190 193 196 200 203 205 206 206 205 204 202 200 198 197 196 196 197 199 200 200
118 122 126 130 133 135 137 138 139 140 140 140 141 143 144 143 145 148 151 158 159 156 150 145 142 138 131 122 114 112 179 192 187 170 138 115 116 125 132 129 130 132 129 123 114 100 76 60 56 61 79 88 81 75 88 168 170 170 175 180 182 184 185 187 189 192 195 198 200 203 206 208 209 209 209 207 205 203 200 198 197 196 197 198 198 196
122 125 127 129 130 130 131 131 133 136 138 138 137 134 123 113 118 132 146 161 165 160 150 144 141 140 139 135 140 155 185 181 178 173 159 124 124 135 145 142 144 149 152 144 140 140 145 138 122 107 111 124 124 119 117 145 157 164 170 178 184 188 191 192 195 198 201 204 205 207 209 210 211 212 211 210 207 205 202 200 198 197 196 196 195 193
119 119 121 122 122 122 122 122 125 127 129 128 122 112 97 97 108 125 145 162 165 157 146 141 140 143 149 150 153 156 158 152 161 168 162 127 118 130 148 144 146 152 159 147 139 142 144 145 143 140 156 169 169 168 162 163 160 160 165 175 183 190 192 194 197 202 207 209 210 211 211 212 213 213 212 211 209 206 204 202 200 198 194 193 192 191
109 107 109 111 112 113 114 115 116 115 113 107 100 93 91 96 106 117 131 138 137 134 137 139 141 144 149 144 131 113 103 128 152 162 159 130 118 127 144 143 145 145 140 92 68 86 109 124 130 140 166 178 180 175 172 175 176 175 172 176 180 184 189 191 196 202 208 211 213 213 213 214 214 214 213 211 210 208 206 204 202 200 196 191 190 190
105 105 105 106 107 108 110 111 111 109 105 98 93 91 89 95 101 105 106 92 77 80 108 132 140 146 149 139 119 97 90 126 152 158 156 135 126 132 143 148 150 148 143 128 99 84 87 106 120 134 152 170 176 177 177 182 184 184 183 184 183 180 182 187 193 198 204 207 210 212 212 213 213 213 213 211 210 209 208 206 204 203 200 195 190 189
107 106 106 108 110 112 113 113 112 109 104 98 93 90 90 92 93 92 86 73 62 57 60 86 112 130 142 141 137 132 137 147 157 160 157 144 134 133 141 153 156 155 153 152 142 126 110 118 128 134 137 150 166 180 184 185 185 184 187 194 193 189 184 187 190 194 197 200 204 206 206 207 209 210 211 210 210 209 209 208 207 205 204 199 195 190
111 111 110 112 115 118 119 118 115 110 105 98 94 91 90 89 87 84 79 74 70 67 63 59 58 62 74 102 124 134 142 149 158 162 161 151 139 134 141 155 161 160 159 159 156 150 136 132 134 137 138 147 159 172 179 181 181 183 188 196 200 199 194 193 193 193 193 197 200 201 200 201 203 206 207 208 209 209 210 209 209 208 206 203 199 196
119 119 118 117 119 119 118 115 110 107 106 102 99 95 91 90 87 84 79 75 74 72 70 66 61 56 52 57 76 102 126 141 154 161 162 151 141 137 140 150 159 164 165 164 164 161 149 142 142 148 155 158 160 160 161 166 174 183 192 195 198 200 199 197 198 198 197 199 200 199 197 199 200 202 204 206 207 209 210 210 210 209 208 205 202 199
124 123 123 122 120 117 114 111 108 105 105 104 102 99 95 91 87 83 78 74 74 75 75 71 67 62 58 65 74 91 113 135 149 157 159 150 140 136 135 140 154 164 169 167 166 163 158 156 160 167 177 172 158 145 145 157 171 182 190 191 193 197 199 197 198 201 202 203 201 199 196 197 198 199 200 201 202 204 207 209 211 211 210 207 204 202
130 129 130 126 121 115 113 111 108 105 102 100 100 98 96 90 85 80 77 74 74 74 76 76 74 68 62 66 73 83 97 119 138 147 147 139 134 132 134 140 149 157 162 163 165 167 168 170 175 178 181 173 157 144 140 158 170 177 177 179 188 198 202 199 199 201 203 203 202 199 195 193 193 194 194 195 197 200 202 204 206 207 208 207 205 204
135 132 128 119 110 104 105 106 105 104 103 102 101 99 97 93 87 81 77 75 75 76 78 79 78 74 67 64 65 67 71 82 100 112 116 111 119 129 134 139 144 148 151 155 163 170 175 180 185 188 188 176 164 156 153 165 172 171 166 169 181 194 200 196 197 200 203 204 203 201 197 193 192 192 193 195 198 200 201 200 201 202 202 203 202 202
134 127 119 108 97 91 90 97 101 106 108 109 108 105 103 101 98 93 87 83 81 81 84 84 83 78 71 64 60 57 55 56 60 65 73 79 100 120 128 134 138 142 146 152 159 171 180 182 185 188 188 173 161 155 157 167 170 170 170 175 179 182 185 189 193 197 202 205 206 205 202 197 194 195 197 200 203 205 204 202 201 201 201 203 201 198
128 122 116 109 101 97 98 103 107 110 113 113 113 112 112 112 113 111 108 102 97 94 95 97 96 92 83 74 64 57 52 51 52 55 58 63 82 105 119 125 131 138 144 150 160 171 183 184 184 180 176 167 160 158 161 167 171 174 178 177 169 161 165 184 191 194 199 203 206 207 205 199 198 198 200 202 203 203 203 200 198 198 199 200 199 197
120 115 113 112 113 115 118 118 118 119 119 116 114 113 115 117 119 119 117 115 114 114 113 111 109 106 101 93 82 68 57 53 55 58 63 64 76 97 118 122 128 136 144 151 160 171 183 187 187 182 178 173 169 167 164 164 169 175 181 175 166 160 164 180 185 189 195 199 202 204 204 199 196 196 199 198 193 185 182 190 193 194 197 195 194 194
112 110 110 112 116 121 124 126 129 130 128 123 119 117 118 121 122 121 118 118 119 119 119 117 113 109 106 106 101 92 77 66 60 58 60 64 72 91 118 127 133 141 149 155 162 169 177 185 186 182 177 178 178 176 169 164 167 173 179 177 177 177 178 167 169 177 187 193 196 198 201 193 187 184 189 187 175 161 164 180 189 197 203 199 198 199
114 117 119 125 129 133 135 137 137 134 128 124 123 123 126 129 129 127 124 124 124 125 127 129 124 118 115 117 116 112 104 91 78 69 63 62 64 74 103 127 141 150 157 162 165 168 173 178 177 172 170 181 187 186 177 167 164 167 172 177 182 183 172 151 157 170 181 187 189 190 193 185 178 174 181 182 180 178 182 186 192 199 206 205 205 208
127 132 137 141 142 142 142 140 137 132 127 125 126 128 132 135 134 133 130 130 131 133 140 141 138 134 132 134 134 132 128 122 113 102 91 81 75 73 78 94 116 135 150 158 165 172 179 176 167 163 164 177 190 194 187 169 162 160 164 172 175 172 149 145 156 170 180 185 186 185 183 181 180 183 191 193 192 190 191 195 198 201 206 206 208 211
143 145 147 148 146 143 140 139 136 134 131 131 131 133 136 138 138 136 134 134 135 138 143 146 143 140 139 142 144 144 142 140 137 132 125 115 106 97 87 78 72 69 74 92 113 138 157 159 159 162 166 173 182 188 185 170 161 158 159 164 167 165 156 154 161 171 179 183 182 178 174 178 184 191 197 198 197 196 196 202 207 208 208 209 210 213
151 150 150 147 143 140 139 140 140 139 136 134 134 134 137 140 140 139 135 138 140 142 146 149 147 142 140 143 147 148 145 143 142 140 137 132 126 120 113 105 94 83 74 71 68 66 63 82 141 168 177 178 178 177 173 166 162 159 155 158 160 161 158 151 154 162 174 176 172 167 168 177 185 192 195 198 200 202 200 202 206 210 210 212 214 215
151 150 149 145 141 140 141 144 145 143 140 137 136 135 138 140 140 139 138 142 145 149 151 153 150 146 143 146 147 146 143 140 138 137 138 137 136 134 132 129 126 120 113 107 102 96 86 74 67 236 231 215 195 178 167 161 159 159 153 153 155 155 150 142 142 148 162 161 158 159 169 182 189 193 194 199 204 208 207 205 205 205 206 210 214 217
150 149 149 146 144 144 145 146 146 144 142 140 140 139 140 139 138 139 140 144 149 154 156 155 152 149 147 147 148 146 143 140 138 138 140 141 141 142 143 145 145 145 144 144 146 149 149 148 169 242 271 271 259 221 171 156 153 153 155 153 152 148 142 133 134 139 151 151 151 156 171 184 194 199 202 206 210 213 215 212 208 202 199 202 209 217
151 150 150 149 147 147 147 147 146 145 144 142 141 140 139 138 139 141 143 148 151 154 154 154 152 149 147 147 147 146 145 143 142 142 144 145 146 149 152 155 158 158 157 157 160 163 168 167 171 184 208 228 245 252 224 163 153 153 160 156 152 146 138 130 129 134 143 146 150 156 169 183 192 199 204 209 213 217 222 221 215 206 194 195 202 213